User: anonymous   Login
Location: Unspecified
(0.0000°N, 0.0000°E)
Time: 09:06:54
(UTC+00:00)
Language:

NAVSTAR 65 (USA 213) - Orbit

View from above orbital plane
View from above orbital plane
View from above satellite
View from above satellite

Ground track
Ground track

The orbit data is extracted from the following two-line orbital elements,

1 36585U 10022A   15116.33546817 -.00000103  00000-0  00000+0 0  9997
2 36585 056.0437 011.6225 0043916 037.9154 162.6871 02.00562118 35973
Epoch (UTC): 26 April 2015 08:03:04
Eccentricity: 0.0043916
inclination: 56.0437°
perigee height: 20065 km
apogee height: 20299 km
right ascension of ascending node: 11.6225°
argument of perigee: 37.9154°
revolutions per day: 2.00562118
mean anomaly at epoch: 162.6871°
orbit number at epoch: 3597

The dashed part of the orbit path shows where the satellite is in the earth's shadow,  

DLR